Change the Weather History Date:

Friday, December 28, 2012

  Actual Average Record
Temperature  
Mean Temperature 49 °F 46 °F  
Max Temperature 57 °F 56 °F 78 °F (1988)
Min Temperature 40 °F 36 °F 19 °F (2010)
Degree Days  
Heating Degree Days 16 19  
Month to date heating degree days 304 477  
Since 1 July heating degree days 862 879  
Cooling Degree Days 0 0  
Month to date cooling degree days 10 0  
Year to date cooling degree days 2407 2225  
Moisture  
Dew Point 44 °F    
Average Humidity 83    
Maximum Humidity 100    
Minimum Humidity 65    
Precipitation  
Precipitation 0.52 in 0.15 in 2.32 in (1954)
Month to date precipitation 8.40 5.20  
Year to date precipitation 54.76 54.33  
Sea Level Pressure  
Sea Level Pressure 29.89 in    
Wind  
Wind Speed 9 mph (NNW)    
Max Wind Speed 21 mph    
Max Gust Speed 29 mph    
Visibility 7 miles    
Events Rain    
T = Trace of Precipitation, MM = Missing Value Source: NWS Daily Summary

Daily Weather History Graph

Daily Weather History Graph

Search for Another Location

Airport or City:

Trip Planner

Search our weather history database for the weather conditions in past years. The results will help you decide how hot, cold, wet, or windy it might be!

Date:

Astronomy

Dec. 28, 2012 Rise Set
Actual Time 7:04 AM CST 5:07 PM CST
Civil Twilight 6:37 AM CST 5:34 PM CST
Nautical Twilight 6:06 AM CST 6:05 PM CST
Astronomical Twilight 5:36 AM CST 6:35 PM CST
Moon 5:40 PM CST (12/28) 7:01 AM CST (12/28)
Length of Visible Light 10h 57m
Length of Day
10h 02m
Full, 100% of the Moon is Illuminated
Dec 28
Full
Jan 4
Last Quarter
Jan 11
New
Jan 18
First Quarter
Jan 26
Full

Hourly Weather History & Observations

Time (CST) Temp. Windchill Dew Point Humidity Pressure Visibility Wind Dir Wind Speed Gust Speed Precip Events Conditions
12:53 AM 46.0 °F 42.5 °F 36.0 °F 68% 30.02 in 10.0 mi SE 6.9 mph - N/A   Overcast
1:53 AM 46.9 °F - 37.0 °F 68% 30.00 in 10.0 mi SE 9.2 mph - N/A   Overcast
2:53 AM 46.9 °F - 37.0 °F 68% 29.99 in 10.0 mi SE 10.4 mph - N/A   Overcast
3:53 AM 46.9 °F - 37.9 °F 71% 29.95 in 10.0 mi SE 12.7 mph - N/A   Mostly Cloudy
4:53 AM 46.9 °F - 42.1 °F 83% 29.93 in 6.0 mi SE 10.4 mph - 0.01 in Rain Rain
5:53 AM 46.9 °F - 42.1 °F 83% 29.94 in 10.0 mi ESE 6.9 mph - 0.01 in   Mostly Cloudy
6:53 AM 48.0 °F - 43.0 °F 83% 29.94 in 10.0 mi ESE 6.9 mph - 0.00 in Rain Light Rain
7:32 AM 46.4 °F 43.5 °F 44.6 °F 93% 29.92 in 8.0 mi NNE 5.8 mph - 0.02 in Rain Light Rain
7:53 AM 46.9 °F - 44.1 °F 90% 29.92 in 8.0 mi ENE 6.9 mph - 0.02 in Rain Light Rain
8:53 AM 46.9 °F - 44.1 °F 90% 29.93 in 4.0 mi East 9.2 mph - 0.03 in Rain Light Rain
9:13 AM 46.4 °F 41.5 °F 44.6 °F 93% 29.89 in 5.0 mi East 10.4 mph - 0.01 in Rain Light Rain
9:53 AM 48.0 °F - 46.0 °F 93% 29.92 in 3.0 mi ESE 8.1 mph - 0.13 in Rain Rain
10:30 AM 48.2 °F - 46.4 °F 93% 29.89 in 2.5 mi ESE 9.2 mph - 0.12 in Rain Heavy Rain
10:38 AM 48.2 °F - 46.4 °F 93% 29.88 in 2.0 mi ESE 8.1 mph - 0.16 in Rain Heavy Rain
10:53 AM 50.0 °F - 48.9 °F 96% 29.89 in 3.0 mi SE 5.8 mph - 0.19 in Rain Rain
12:35 PM 53.6 °F - 53.6 °F 100% 29.78 in 2.5 mi SE 9.2 mph - 0.06 in Rain Rain
12:43 PM 53.6 °F - 53.6 °F 100% 29.77 in 4.0 mi SSE 8.1 mph - 0.08 in Rain Rain
12:53 PM 55.0 °F - 53.1 °F 93% 29.79 in 4.0 mi SE 5.8 mph - 0.09 in Rain Light Rain
1:01 PM 55.4 °F - 53.6 °F 94% 29.75 in 7.0 mi ESE 6.9 mph - 0.00 in Rain Light Rain
1:53 PM 55.9 °F - 54.0 °F 93% 29.74 in 10.0 mi ESE 4.6 mph - 0.00 in   Overcast
2:53 PM 57.0 °F - 55.0 °F 93% 29.74 in 10.0 mi Calm Calm - 0.00 in Rain Light Rain
3:04 PM 57.2 °F - 55.4 °F 94% 29.72 in 10.0 mi Calm Calm - 0.00 in   Overcast
3:13 PM 57.2 °F - 55.4 °F 94% 29.73 in 10.0 mi WNW 3.5 mph - 0.00 in   Overcast
3:30 PM 57.2 °F - 55.4 °F 94% 29.73 in 10.0 mi WNW 4.6 mph - 0.00 in   Overcast
3:53 PM 53.1 °F - 51.1 °F 93% 29.77 in 5.0 mi NW 9.2 mph - 0.00 in   Overcast
4:12 PM 48.2 °F - 48.2 °F 100% 29.77 in 2.5 mi WNW 11.5 mph - N/A   Overcast
4:21 PM 48.2 °F - 46.4 °F 93% 29.77 in 1.0 mi NW 12.7 mph 19.6 mph 0.00 in Rain Light Rain
4:53 PM 46.0 °F 41.0 °F 45.0 °F 96% 29.82 in 1.2 mi WNW 10.4 mph - 0.00 in Rain Light Rain
5:12 PM 46.4 °F 41.1 °F 44.6 °F 93% 29.81 in 2.5 mi NW 11.5 mph 16.1 mph 0.01 in Rain Light Rain
5:23 PM 44.6 °F 40.2 °F 44.6 °F 100% 29.82 in 3.0 mi NW 8.1 mph - 0.01 in Rain Light Rain
5:53 PM 44.1 °F 38.1 °F 43.0 °F 96% 29.87 in 4.0 mi WNW 11.5 mph 19.6 mph 0.01 in Rain Light Rain
6:53 PM 43.0 °F 36.0 °F 42.1 °F 97% 29.92 in 4.0 mi WNW 13.8 mph 21.9 mph 0.01 in Rain Light Rain
7:38 PM 42.8 °F 36.6 °F 41.0 °F 93% 29.91 in 10.0 mi NW 11.5 mph 17.3 mph 0.00 in   Overcast
7:53 PM 43.0 °F 37.2 °F 41.0 °F 93% 29.95 in 10.0 mi NW 10.4 mph 21.9 mph 0.00 in   Overcast
8:03 PM 42.8 °F 36.2 °F 41.0 °F 93% 29.93 in 10.0 mi WNW 12.7 mph 19.6 mph N/A   Overcast
8:26 PM 42.8 °F 35.4 °F 39.2 °F 87% 29.94 in 10.0 mi WNW 15.0 mph 27.6 mph N/A   Overcast
8:53 PM 42.1 °F 34.5 °F 39.0 °F 89% 29.99 in 10.0 mi NW 15.0 mph 26.5 mph N/A   Overcast
9:11 PM 42.8 °F 36.2 °F 39.2 °F 87% 29.98 in 10.0 mi NW 12.7 mph 24.2 mph N/A   Overcast
9:45 PM 41.0 °F 35.2 °F 39.2 °F 93% 30.00 in 10.0 mi NW 9.2 mph 19.6 mph N/A   Overcast
9:53 PM 41.0 °F 34.3 °F 37.9 °F 89% 30.03 in 10.0 mi NW 11.5 mph 20.7 mph N/A   Overcast
10:02 PM 41.0 °F 33.1 °F 37.4 °F 87% 30.01 in 10.0 mi NW 15.0 mph 20.7 mph N/A   Overcast
10:31 PM 39.2 °F 32.5 °F 35.6 °F 87% 30.02 in 10.0 mi NNW 10.4 mph 18.4 mph N/A   Overcast
10:53 PM 39.9 °F 34.5 °F 36.0 °F 86% 30.06 in 10.0 mi NW 8.1 mph 18.4 mph N/A   Overcast
11:12 PM 39.2 °F 32.5 °F 35.6 °F 87% 30.04 in 10.0 mi NW 10.4 mph - N/A   Overcast
11:53 PM 39.9 °F 32.9 °F 37.0 °F 89% 30.07 in 10.0 mi NW 11.5 mph 19.6 mph N/A   Overcast